Regional Weather Roundup
Issued by NWS

Home | Current Version | Previous Version | Text Only | Print | Product List | Glossary Off
Versions: 1 2 3 4 5 6 7 8 9 10 11 12 13 14 15 16 17 18 19 20 21 22 23 24 25 26 27 28 29 30 31 32 33 34 35 36 37 38 39 40 41 42 43 44 45 46 47 48 49 50

000
ASUS45 KCYS 260010
RWRWY

WYOMING REGIONAL WEATHER ROUNDUP
NATIONAL WEATHER SERVICE CHEYENNE WY
600 PM MDT SAT APR 25 2015

NOTE:  "FAIR" INDICATES FEW OR NO CLOUDS BELOW 12,000 FEET
WITH NO SIGNIFICANT WEATHER AND/OR OBSTRUCTIONS TO VISIBILITY.

WYZ001-260100-
YELLOWSTONE NATIONAL PARK

CITY           SKY/WX    TMP DP  RH WIND       PRES   REMARKS
LK YELLOWSTONE   N/A     39  20  46 CALM      29.81F
6HR MIN TEMP:  32; 6HR MAX TEMP:  41;

W YELLOWSTONE  NOT AVBL

$$
WYZ002>013-054>058-071-098>099-260100-
NORTHERN WYOMING

CITY           SKY/WX    TMP DP  RH WIND       PRES   REMARKS
JACKSON        CLOUDY    46  21  36 SE7       29.76F
CODY           CLOUDY    45  34  65 N8        29.79S
GREYBULL       FAIR      57  32  38 N9        29.75S
6HR MIN TEMP:  45; 6HR MAX TEMP:  58;

WORLAND        FAIR      55  34  45 N9        29.75S
6HR MIN TEMP:  44; 6HR MAX TEMP:  58;

SHERIDAN       CLOUDY    45  35  68 NW12      29.84R
6HR MIN TEMP:  39; 6HR MAX TEMP:  47; 6HR PCP: TRACE;

BUFFALO        CLOUDY    43  35  73 N18G24    29.83R
6HR MIN TEMP:  39; 6HR MAX TEMP:  47;

GILLETTE       FAIR      48  36  63 N15       29.80S
6HR MIN TEMP:  44; 6HR MAX TEMP:  55;

HULETT         RAIN      41  39  93 N6        29.83R
NEWCASTLE      FAIR      50  45  81 NW16G23   29.75R

$$
WYZ014>020-022>026-101>103-260100-
CENTRAL WYOMING

CITY           SKY/WX    TMP DP  RH WIND       PRES   REMARKS
BIG PINEY      FAIR      49  21  33 CALM      29.75S
6HR MIN TEMP:  43; 6HR MAX TEMP:  51;

PINEDALE       FAIR      45  23  42 CALM      29.75F
DUBOIS         FAIR      46  18  31 W14       29.72F
LANDER         FAIR      51  36  56 NE8       29.71R
6HR MIN TEMP:  51; 6HR MAX TEMP:  60; 6HR PCP: TRACE;

RIVERTON       PTSUNNY   53  35  50 NE16      29.72S
6HR MIN TEMP:  47; 6HR MAX TEMP:  60; 6HR PCP:  0.03;

CASPER         FAIR      53  38  56 N18       29.74R
6HR MIN TEMP:  53; 6HR MAX TEMP:  61;

DOUGLAS        FAIR      61  26  26 NW13      29.74R
6HR MIN TEMP:  57; 6HR MAX TEMP:  65;


$$
WYZ021-027>030-104>119-260100-
SOUTHERN WYOMING

CITY           SKY/WX    TMP DP  RH WIND       PRES   REMARKS
EVANSTON       CLOUDY    40  34  79 E15       29.75R WCI  32
6HR MIN TEMP:  40; 6HR MAX TEMP:  51;

KEMMERER       CLOUDY    45  27  49 N5        29.75R
FORT BRIDGER   CLOUDY    43  36  75 W15       29.78R
ROCK SPRINGS   FAIR      51  24  34 NE3       29.74S
6HR MIN TEMP:  45; 6HR MAX TEMP:  53;

DIXON          FAIR      53  28  37 SW5       29.79S
RAWLINS        CLOUDY    51  24  34 SW6       29.77S
6HR MIN TEMP:  43; 6HR MAX TEMP:  55;

SARATOGA       FAIR      52  25  35 SW3       29.79S
LARAMIE        CLOUDY    50  32  50 S12       29.78S
6HR MIN TEMP:  47; 6HR MAX TEMP:  53;

CHEYENNE       FAIR      52  39  61 NE10      29.77R
6HR MIN TEMP:  48; 6HR MAX TEMP:  63; 6HR PCP:  0.02;

TORRINGTON     FAIR      59  36  42 W8        29.71S
6HR MIN TEMP:  59; 6HR MAX TEMP:  69; 6HR PCP: TRACE;

PINE BLUFFS    LGT RAIN  45  43  93 N9        29.79S

$$



USA.gov is the U.S. government's official web portal to all federal, state and local government web resources and services.